Radiation Dose at Monitoring Post of Fukushima Daini Nuclear Power Station
Date,Time,MP-1(microSv/h),MP-2(microSv/h),MP-3(microSv/h),MP-4(microSv/h),MP-5(microSv/h),MP-6(microSv/h),MP-7(microSv/h),Wind Direction,Wind Velocity(m/s),Rain
2015/07/05,00:00,0.509,0.292,0.517,0.467,0.461,0.241,0.207,south-southwest,4.7,Yes
2015/07/05,00:10,0.503,0.297,0.513,0.471,0.463,0.239,0.209,south-southwest,3.6,Yes
2015/07/05,00:20,0.509,0.294,0.519,0.463,0.458,0.240,0.208,south-southwest,3.5,Yes
2015/07/05,00:30,0.506,0.296,0.514,0.470,0.464,0.241,0.209,south-southwest,2.8,Yes
2015/07/05,00:40,0.504,0.296,0.515,0.465,0.460,0.240,0.208,southwest,2.8,Yes
2015/07/05,00:50,0.509,0.295,0.515,0.468,0.463,0.241,0.208,southwest,1.5,Yes
2015/07/05,01:00,0.501,0.297,0.512,0.469,0.461,0.240,0.208,southwest,1.4,Yes
2015/07/05,01:10,0.507,0.293,0.516,0.464,0.460,0.240,0.208,west-southwest,1.3,Yes
2015/07/05,01:20,0.504,0.297,0.510,0.469,0.464,0.239,0.207,west-southwest,0.6,Yes
2015/07/05,01:30,0.505,0.294,0.513,0.462,0.457,0.239,0.208,southwest,10.0,Yes
2015/07/05,01:40,0.502,0.294,0.511,0.469,0.462,0.240,0.208,-,CALM,Yes
2015/07/05,01:50,0.500,0.295,0.510,0.463,0.458,0.239,0.207,-,CALM,Yes
2015/07/05,02:00,0.505,0.293,0.513,0.462,0.463,0.239,0.208,-,CALM,Yes
2015/07/05,02:10,0.499,0.296,0.508,0.465,0.460,0.238,0.206,north-northwest,2.3,Yes
2015/07/05,02:20,0.502,0.292,0.512,0.462,0.459,0.241,0.207,southwest,5.1,Yes
2015/07/05,02:30,0.500,0.293,0.508,0.463,0.461,0.238,0.205,west-southwest,3.3,Yes
2015/07/05,02:40,0.499,0.291,0.507,0.458,0.456,0.239,0.206,west-northwest,0.8,Yes
2015/07/05,02:50,0.501,0.293,0.507,0.463,0.461,0.238,0.205,northwest,1.2,Yes
2015/07/05,03:00,0.496,0.291,0.504,0.459,0.457,0.237,0.205,west-northwest,0.9,Yes
2015/07/05,03:10,0.501,0.292,0.510,0.460,0.461,0.237,0.204,west-northwest,1.0,Yes
2015/07/05,03:20,0.498,0.292,0.504,0.462,0.457,0.235,0.205,-,CALM,Yes
2015/07/05,03:30,0.500,0.291,0.510,0.458,0.458,0.235,0.205,north-northwest,0.8,Yes
2015/07/05,03:40,0.499,0.294,0.507,0.461,0.459,0.236,0.205,northwest,0.5,Yes
2015/07/05,03:50,0.495,0.289,0.504,0.457,0.454,0.234,0.204,north-northwest,1.0,Yes
2015/07/05,04:00,0.499,0.292,0.508,0.461,0.459,0.235,0.203,west-northwest,1.9,Yes
2015/07/05,04:10,0.495,0.290,0.505,0.458,0.455,0.236,0.204,northwest,0.7,Yes
2015/07/05,04:20,0.500,0.290,0.508,0.457,0.461,0.235,0.203,northeast,0.5,Yes
2015/07/05,04:30,0.497,0.291,0.504,0.459,0.457,0.234,0.204,-,CALM,Yes
2015/07/05,04:40,0.498,0.291,0.509,0.457,0.455,0.235,0.202,north,0.6,Yes
2015/07/05,04:50,0.498,0.291,0.507,0.462,0.459,0.235,0.203,north-northwest,1.1,Yes
2015/07/05,05:00,0.494,0.289,0.505,0.455,0.453,0.234,0.203,west-northwest,0.6,Yes
2015/07/05,05:10,0.498,0.289,0.508,0.460,0.457,0.232,0.203,north,0.7,Yes
2015/07/05,05:20,0.492,0.285,0.502,0.456,0.453,0.232,0.201,north-northwest,0.9,No
2015/07/05,05:30,0.497,0.288,0.508,0.459,0.457,0.232,0.201,north-northwest,1.3,No
2015/07/05,05:40,0.492,0.287,0.501,0.458,0.454,0.230,0.199,north,0.8,No
2015/07/05,05:50,0.493,0.287,0.504,0.456,0.454,0.229,0.199,north,1.3,Yes
2015/07/05,06:00,0.496,0.286,0.504,0.459,0.455,0.229,0.199,north-northwest,1.6,Yes
2015/07/05,06:10,0.489,0.284,0.502,0.453,0.453,0.229,0.198,north-northwest,1.5,No
2015/07/05,06:20,0.495,0.286,0.505,0.458,0.457,0.227,0.198,north,1.6,No
2015/07/05,06:30,0.491,0.284,0.501,0.457,0.451,0.229,0.198,north,1.9,No
2015/07/05,06:40,0.491,0.284,0.505,0.456,0.454,0.228,0.197,north-northeast,2.3,No
2015/07/05,06:50,0.495,0.285,0.502,0.458,0.454,0.227,0.197,north-northeast,2.2,Yes
2015/07/05,07:00,0.489,0.283,0.502,0.454,0.452,0.228,0.198,northeast,2.2,Yes
2015/07/05,07:10,0.497,0.285,0.506,0.459,0.457,0.228,0.197,north-northeast,2.2,Yes
2015/07/05,07:20,0.493,0.284,0.502,0.455,0.451,0.229,0.198,north-northeast,2.1,No
2015/07/05,07:30,0.491,0.286,0.504,0.458,0.455,0.228,0.199,north-northeast,1.6,No
2015/07/05,07:40,0.496,0.284,0.504,0.461,0.455,0.229,0.197,north,1.8,No
2015/07/05,07:50,0.490,0.284,0.502,0.455,0.450,0.229,0.197,north,2.8,No
2015/07/05,08:00,0.496,0.285,0.506,0.460,0.457,0.229,0.197,north-northwest,2.5,No
2015/07/05,08:10,0.493,0.284,0.502,0.456,0.453,0.229,0.200,north,2.5,No
2015/07/05,08:20,0.490,0.286,0.505,0.456,0.453,0.228,0.198,north-northwest,2.5,No
2015/07/05,08:30,0.496,0.285,0.506,0.460,0.456,0.229,0.197,north-northwest,1.9,No
2015/07/05,08:40,0.492,0.283,0.500,0.456,0.451,0.229,0.198,north,1.2,No
2015/07/05,08:50,0.492,0.285,0.506,0.456,0.453,0.227,0.197,north,1.4,No
2015/07/05,09:00,0.494,0.284,0.506,0.460,0.455,0.229,0.197,north,0.8,No
2015/07/05,09:10,0.492,0.282,0.499,0.455,0.450,0.228,0.198,northwest,1.0,No
2015/07/05,09:20,0.490,0.285,0.506,0.456,0.454,0.226,0.196,northwest,0.9,No
2015/07/05,09:30,0.497,0.285,0.504,0.459,0.456,0.228,0.198,-,CALM,No
2015/07/05,09:40,0.491,0.282,0.499,0.454,0.452,0.228,0.197,north,1.4,No
2015/07/05,09:50,0.491,0.283,0.507,0.456,0.450,0.227,0.197,north,1.0,No
2015/07/05,10:00,0.498,0.286,0.508,0.461,0.456,0.229,0.196,north-northeast,2.3,No
2015/07/05,10:10,0.495,0.285,0.501,0.457,0.457,0.228,0.198,north-northeast,2.3,No
2015/07/05,10:20,0.490,0.283,0.502,0.453,0.452,0.227,0.197,northeast,2.1,No
2015/07/05,10:30,0.497,0.287,0.506,0.461,0.455,0.228,0.197,northeast,2.8,No
2015/07/05,10:40,0.493,0.286,0.502,0.457,0.459,0.228,0.198,northeast,2.8,No
2015/07/05,10:50,0.493,0.283,0.505,0.455,0.453,0.228,0.197,north-northeast,3.0,No
2015/07/05,11:00,0.498,0.286,0.509,0.462,0.453,0.228,0.197,north-northeast,2.5,No
2015/07/05,11:10,0.494,0.283,0.503,0.457,0.458,0.227,0.199,north-northeast,2.1,No
2015/07/05,11:20,0.493,0.283,0.505,0.454,0.455,0.229,0.197,north,2.4,No
2015/07/05,11:30,0.499,0.286,0.510,0.461,0.451,0.228,0.196,north,1.5,No
2015/07/05,11:40,0.493,0.286,0.501,0.459,0.459,0.229,0.197,north,2.2,No
2015/07/05,11:50,0.493,0.285,0.505,0.455,0.454,0.227,0.198,north,1.9,No
2015/07/05,12:00,0.497,0.287,0.509,0.462,0.449,0.227,0.196,north,1.6,No
2015/07/05,12:10,0.494,0.285,0.504,0.458,0.458,0.228,0.197,north,2.5,No
2015/07/05,12:20,0.491,0.282,0.502,0.455,0.456,0.229,0.198,north-northwest,1.9,No
2015/07/05,12:30,0.498,0.287,0.507,0.461,0.452,0.227,0.197,north-northwest,2.3,No
2015/07/05,12:40,0.493,0.285,0.505,0.460,0.452,0.228,0.196,north-northeast,1.6,No
2015/07/05,12:50,0.492,0.282,0.499,0.456,0.457,0.229,0.198,north-northeast,2.5,No
2015/07/05,13:00,0.498,0.285,0.509,0.457,0.455,0.228,0.198,north-northeast,3.6,No
2015/07/05,13:10,0.494,0.286,0.508,0.463,0.452,0.228,0.196,north,3.9,No
2015/07/05,13:20,0.491,0.284,0.504,0.458,0.455,0.228,0.197,north-northeast,4.5,No
2015/07/05,13:30,0.499,0.285,0.502,0.455,0.459,0.230,0.198,north-northeast,4.4,No
2015/07/05,13:40,0.495,0.287,0.508,0.461,0.455,0.228,0.198,north-northeast,4.1,No
2015/07/05,13:50,0.492,0.286,0.505,0.463,0.452,0.228,0.197,north-northeast,4.1,No
2015/07/05,14:00,0.499,0.284,0.502,0.456,0.458,0.229,0.199,northeast,3.9,No
2015/07/05,14:10,0.496,0.287,0.509,0.460,0.455,0.229,0.198,north-northeast,3.8,No
2015/07/05,14:20,0.493,0.286,0.506,0.462,0.452,0.229,0.197,northeast,4.2,No
2015/07/05,14:30,0.498,0.286,0.503,0.459,0.461,0.229,0.199,northeast,3.4,No
2015/07/05,14:40,0.497,0.287,0.511,0.461,0.457,0.229,0.197,northeast,3.2,No
2015/07/05,14:50,0.494,0.285,0.508,0.462,0.451,0.228,0.198,north-northeast,3.3,No
2015/07/05,15:00,0.500,0.286,0.504,0.458,0.459,0.228,0.199,north-northeast,3.2,No
2015/07/05,15:10,0.497,0.288,0.513,0.462,0.455,0.230,0.198,north-northeast,3.2,No
2015/07/05,15:20,0.494,0.285,0.507,0.463,0.453,0.228,0.199,north-northeast,3.0,No
2015/07/05,15:30,0.499,0.285,0.502,0.460,0.460,0.229,0.200,north,3.1,No
2015/07/05,15:40,0.494,0.287,0.508,0.461,0.458,0.231,0.199,north-northeast,3.4,No
2015/07/05,15:50,0.495,0.285,0.509,0.464,0.453,0.229,0.198,north,2.8,No
2015/07/05,16:00,0.499,0.284,0.502,0.459,0.453,0.228,0.199,north,2.7,No
2015/07/05,16:10,0.496,0.287,0.507,0.455,0.460,0.229,0.200,north,2.0,No
2015/07/05,16:20,0.495,0.287,0.509,0.465,0.456,0.231,0.197,north-northwest,2.8,No
2015/07/05,16:30,0.503,0.285,0.507,0.462,0.452,0.229,0.200,north-northwest,3.1,No
2015/07/05,16:40,0.495,0.287,0.504,0.456,0.449,0.229,0.201,north-northwest,3.6,No
2015/07/05,16:50,0.494,0.287,0.512,0.461,0.459,0.230,0.198,north-northwest,3.3,No
2015/07/05,17:00,0.500,0.285,0.509,0.463,0.459,0.230,0.198,north,2.9,No
2015/07/05,17:10,0.496,0.285,0.504,0.459,0.455,0.229,0.199,north-northeast,3.6,No
2015/07/05,17:20,0.495,0.288,0.512,0.458,0.453,0.229,0.199,north-northeast,4.1,No
2015/07/05,17:30,0.502,0.287,0.510,0.464,0.459,0.230,0.198,north-northeast,5.3,No
2015/07/05,17:40,0.498,0.286,0.506,0.461,0.457,0.230,0.200,north-northeast,4.6,No
2015/07/05,17:50,0.500,0.287,0.510,0.460,0.455,0.229,0.197,north-northeast,4.6,No
2015/07/05,18:00,0.499,0.286,0.509,0.466,0.463,0.231,0.199,north-northeast,5.0,No
2015/07/05,18:10,0.495,0.288,0.506,0.460,0.457,0.229,0.198,north,5.2,No
2015/07/05,18:20,0.500,0.286,0.514,0.465,0.461,0.230,0.198,north,4.1,No
2015/07/05,18:30,0.498,0.287,0.508,0.462,0.458,0.231,0.199,north,3.5,No
2015/07/05,18:40,0.500,0.288,0.509,0.460,0.457,0.229,0.199,north-northeast,2.7,No
2015/07/05,18:50,0.498,0.286,0.509,0.466,0.460,0.231,0.199,north-northeast,1.6,No
2015/07/05,19:00,0.496,0.288,0.506,0.458,0.455,0.230,0.198,northeast,1.1,No
2015/07/05,19:10,0.502,0.285,0.512,0.464,0.460,0.230,0.200,northeast,1.0,No
2015/07/05,19:20,0.497,0.289,0.506,0.463,0.458,0.230,0.198,northeast,1.5,No
2015/07/05,19:30,0.497,0.287,0.509,0.461,0.456,0.229,0.200,north-northeast,1.6,No
2015/07/05,19:40,0.502,0.287,0.512,0.465,0.459,0.231,0.198,north-northeast,1.9,No
2015/07/05,19:50,0.494,0.288,0.506,0.460,0.452,0.229,0.200,northeast,1.0,No
2015/07/05,20:00,0.502,0.286,0.513,0.464,0.459,0.230,0.199,east-northeast,0.7,No
2015/07/05,20:10,0.497,0.287,0.507,0.461,0.456,0.230,0.199,north,1.1,No
2015/07/05,20:20,0.498,0.285,0.509,0.461,0.455,0.229,0.199,north-northeast,0.5,No
2015/07/05,20:30,0.500,0.287,0.510,0.465,0.459,0.231,0.198,north-northeast,0.7,No
2015/07/05,20:40,0.497,0.285,0.507,0.459,0.452,0.229,0.199,north-northeast,0.8,No
2015/07/05,20:50,0.502,0.286,0.513,0.465,0.459,0.232,0.198,-,CALM,No
2015/07/05,21:00,0.495,0.287,0.508,0.460,0.456,0.230,0.200,north-northwest,0.6,No
2015/07/05,21:10,0.499,0.285,0.510,0.463,0.458,0.229,0.199,northwest,1.1,No
2015/07/05,21:20,0.500,0.288,0.511,0.466,0.458,0.232,0.199,west-northwest,1.6,No
2015/07/05,21:30,0.496,0.286,0.504,0.459,0.453,0.230,0.200,west-northwest,1.4,No
2015/07/05,21:40,0.502,0.287,0.513,0.465,0.460,0.230,0.199,northwest,0.6,No
2015/07/05,21:50,0.497,0.287,0.509,0.463,0.454,0.231,0.200,-,CALM,No
2015/07/05,22:00,0.498,0.285,0.509,0.463,0.459,0.230,0.199,-,CALM,No
2015/07/05,22:10,0.502,0.287,0.511,0.464,0.458,0.230,0.200,-,CALM,No
2015/07/05,22:20,0.494,0.285,0.506,0.460,0.455,0.229,0.199,-,CALM,No
2015/07/05,22:30,0.501,0.289,0.513,0.466,0.459,0.231,0.201,-,CALM,No
2015/07/05,22:40,0.497,0.286,0.508,0.462,0.454,0.230,0.199,south,0.9,No
2015/07/05,22:50,0.496,0.287,0.509,0.463,0.460,0.231,0.199,south,1.3,No
2015/07/05,23:00,0.501,0.288,0.512,0.464,0.457,0.230,0.199,south-southwest,1.7,No
2015/07/05,23:10,0.497,0.286,0.507,0.460,0.457,0.231,0.198,south,2.0,No
2015/07/05,23:20,0.502,0.289,0.513,0.467,0.460,0.231,0.200,south,2.1,No
2015/07/05,23:30,0.497,0.285,0.509,0.463,0.453,0.230,0.199,south,1.9,No
2015/07/05,23:40,0.498,0.286,0.508,0.464,0.460,0.231,0.200,south,2.9,No
2015/07/05,23:50,0.500,0.288,0.510,0.465,0.456,0.230,0.198,south,3.2,No
